TimeEST,TemperatureF,Dew PointF,Humidity,Sea Level PressureIn,VisibilityMPH,Wind Direction,Wind SpeedMPH,Gust SpeedMPH,PrecipitationIn,Events,Conditions,WindDirDegrees,DateUTC
12:00 AM,15.8,12.2,86,30.07,1.0,West,13.8,-,0.00,Snow,Light Snow,280,2013-02-20 05:00:00
12:22 AM,15.8,10.4,79,30.08,2.0,WNW,13.8,-,0.00,Snow,Light Snow,300,2013-02-20 05:22:00
12:30 AM,15.8,10.4,79,30.08,1.5,WNW,15.0,-,0.00,Snow,Light Snow,300,2013-02-20 05:30:00
12:38 AM,15.8,10.4,79,30.08,3.0,WNW,12.7,-,0.00,Snow,Light Snow,300,2013-02-20 05:38:00
12:50 AM,15.8,10.4,79,30.08,1.8,WNW,12.7,-,0.00,Snow,Light Snow,290,2013-02-20 05:50:00
12:54 AM,15.8,10.4,79,30.08,1.5,WNW,10.4,-,N/A,Snow,Light Snow,300,2013-02-20 05:54:00
1:15 AM,15.8,10.4,79,30.09,3.0,WNW,12.7,-,0.00,Snow,Light Snow,300,2013-02-20 06:15:00
1:23 AM,15.8,10.4,79,30.09,2.0,WNW,16.1,-,0.00,Snow,Light Snow,290,2013-02-20 06:23:00
1:30 AM,15.8,10.4,79,30.10,1.5,WNW,11.5,-,0.00,Snow,Light Snow,300,2013-02-20 06:30:00
1:42 AM,15.8,10.4,79,30.10,1.8,WNW,16.1,-,0.00,Snow,Light Snow,290,2013-02-20 06:42:00
1:49 AM,15.8,10.4,79,30.10,3.0,WNW,11.5,-,0.00,Snow,Light Snow,290,2013-02-20 06:49:00
1:50 AM,15.1,10.0,80,30.15,3.0,WNW,10.4,-,0.00,Snow,Light Snow,290,2013-02-20 06:50:00
2:07 AM,15.8,10.4,79,30.11,1.8,WNW,10.4,-,0.00,Snow,Light Snow,290,2013-02-20 07:07:00
2:15 AM,15.8,10.4,79,30.11,1.2,West,9.2,-,0.00,Snow,Light Snow,280,2013-02-20 07:15:00
2:29 AM,15.8,10.4,79,30.12,1.8,West,9.2,-,0.00,Snow,Light Snow,280,2013-02-20 07:29:00
2:37 AM,15.8,10.4,79,30.12,2.0,West,12.7,-,0.00,Snow,Light Snow,280,2013-02-20 07:37:00
2:51 AM,15.8,10.4,79,30.12,3.0,West,11.5,-,0.00,Snow,Light Snow,280,2013-02-20 07:51:00
2:54 AM,15.1,10.0,80,30.17,4.0,West,12.7,-,0.00,Snow,Light Snow,270,2013-02-20 07:54:00
3:45 AM,15.8,8.6,73,30.13,2.5,WNW,13.8,20.7,0.00,Snow,Light Snow,290,2013-02-20 08:45:00
3:54 AM,15.1,9.0,77,30.18,3.0,WNW,16.1,-,0.00,Snow,Light Snow,290,2013-02-20 08:54:00
4:44 AM,15.8,8.6,73,30.15,2.0,West,15.0,-,0.00,Snow,Light Snow,280,2013-02-20 09:44:00
4:54 AM,15.1,9.0,77,30.20,3.0,West,12.7,-,0.00,Snow,Light Snow,280,2013-02-20 09:54:00
5:54 AM,15.1,9.0,77,30.22,4.0,WNW,16.1,21.9,0.00,Snow,Light Snow,290,2013-02-20 10:54:00
5:57 AM,15.8,8.6,73,30.17,2.0,WNW,17.3,-,N/A,Snow,Light Snow,290,2013-02-20 10:57:00
6:54 AM,15.8,10.4,79,30.18,2.0,WNW,13.8,-,N/A,Snow,Light Snow,290,2013-02-20 11:54:00
7:54 AM,16.0,10.0,77,30.24,2.0,WNW,16.1,23.0,0.00,Snow,Light Snow,300,2013-02-20 12:54:00
8:34 AM,15.8,10.4,79,30.20,1.8,WNW,12.7,-,N/A,Snow,Light Snow,300,2013-02-20 13:34:00
8:54 AM,17.1,12.0,81,30.25,1.0,WNW,11.5,-,0.00,Snow,Light Snow,290,2013-02-20 13:54:00
9:54 AM,17.6,12.2,79,30.21,1.0,West,10.4,-,N/A,Snow,Light Snow,280,2013-02-20 14:54:00
10:13 AM,17.6,12.2,79,30.22,0.8,West,9.2,-,0.00,Snow,Light Snow,280,2013-02-20 15:13:00
10:54 AM,19.0,14.0,81,30.28,1.0,WNW,10.4,-,0.00,Snow,Light Snow,290,2013-02-20 15:54:00
11:54 AM,19.9,14.0,78,30.30,1.0,WNW,12.7,-,0.01,Snow,Light Snow,290,2013-02-20 16:54:00
12:54 PM,19.9,15.1,81,30.30,1.0,West,12.7,-,0.00,Snow,Light Snow,280,2013-02-20 17:54:00
1:54 PM,21.0,16.0,81,30.28,1.0,WNW,15.0,-,0.00,Snow,Light Snow,300,2013-02-20 18:54:00
2:54 PM,21.0,15.1,78,30.33,1.5,WNW,15.0,-,0.00,Snow,Light Snow,290,2013-02-20 19:54:00
3:20 PM,21.2,15.8,80,30.29,3.0,WNW,18.4,-,0.00,Snow,Light Snow,290,2013-02-20 20:20:00
3:26 PM,21.2,15.8,80,30.29,2.5,WNW,17.3,24.2,0.00,Snow,Light Snow,300,2013-02-20 20:26:00
3:54 PM,21.0,12.9,71,30.33,6.0,NW,17.3,23.0,0.00,Snow,Light Snow,320,2013-02-20 20:54:00
3:56 PM,21.2,12.2,68,30.28,2.5,NW,13.8,23.0,0.00,Snow,Light Snow,310,2013-02-20 20:56:00
4:20 PM,21.2,15.8,80,30.28,2.5,WNW,15.0,-,0.00,Snow,Light Snow,290,2013-02-20 21:20:00
4:45 PM,19.4,15.8,86,30.28,2.5,WNW,13.8,-,0.00,Snow,Light Snow,290,2013-02-20 21:45:00
4:54 PM,19.9,15.1,81,30.33,2.5,West,12.7,-,0.00,Snow,Light Snow,280,2013-02-20 21:54:00
5:33 PM,21.2,15.8,80,30.28,2.5,NW,10.4,-,0.00,Snow,Light Snow,310,2013-02-20 22:33:00
5:50 PM,21.2,15.8,80,30.29,2.5,NW,10.4,-,0.00,Snow,Light Snow,310,2013-02-20 22:50:00
5:54 PM,21.0,15.1,78,30.33,2.5,NW,9.2,-,0.00,Snow,Light Snow,310,2013-02-20 22:54:00
6:54 PM,21.0,16.0,81,30.35,3.0,NW,8.1,-,0.00,Snow,Light Snow,310,2013-02-20 23:54:00
7:54 PM,21.9,16.0,78,30.35,7.0,NNW,8.1,-,0.00,Snow,Light Snow,330,2013-02-21 00:54:00
8:54 PM,21.9,16.0,78,30.35,5.0,NNW,10.4,-,0.00,Snow,Light Snow,330,2013-02-21 01:54:00
9:54 PM,21.9,17.1,82,30.35,5.0,NNW,5.8,-,0.00,Snow,Light Snow,340,2013-02-21 02:54:00
10:54 PM,21.0,17.1,85,30.35,5.0,WNW,4.6,-,0.00,Snow,Light Snow,300,2013-02-21 03:54:00
11:54 PM,21.0,18.0,88,30.34,6.0,WSW,3.5,-,0.00,Snow,Light Snow,250,2013-02-21 04:54:00